OPS 4682 DEB, 38445

Orbit data source: Space-Track

OPS 4682 DEB, 38445 is space debris in LEO originally from a launch on Sat, 03 Apr 1965 UTC launched from the Air Force Western Test Range (AFWTR). Debris objects in space refer to the collection of defunct objects orbiting the Earth. Examples of debris include non-operational satellites, rocket bodies, and fragments generated from explosions, collisions, or faulty payload assembly.

Loading next visibility...
Identifier
38445, 1965-027FA
Orbit
LEO
Country
Flag of USUS
Related business
Manufacturer
Unknown
Mission
Spacecraft
Bus & Motor
Unknown
Mass
Unknown
Launch date (UTC)
1965-04-03 (61 years ago)
Launch vehicle
Unknown
Launch site
Air Force Western Test Range (AFWTR)
Object type
Payload
Rocket body
Debris
Shape & HBR
Unknown shape, 0.1 m
Radar Cross Section
Small (<0.1 m²)

Expand to show TLE details & history
Last TLE update: 1 day ago

TLE from 1 day ago
0 OPS 4682 DEB
1 38445U 65027FA  26035.15665905  .00000011  00000-0  11944-4 0  9992
2 38445  90.2404   3.6739 0029079 187.3642 172.7054 12.95347936586803
Epoch: 2026-02-04T03:45Z
TLE epoch observation values (Epoch: 2026-02-04T03:45:35.341Z)
Latitude
-0.00007°
Longitude
172.94937°
Altitude
1,305.34 km
Speed
7.194 km/s
True Right ascension
00h 14m 41s
True Declination
0° 00' 00"
Sunlit
Object was in daylight at epoch
Visualization orbit readout
Latitude
Unknown
Longitude
Unknown
Altitude
Unknown
Speed
Unknown
Apparent Right ascension
Unknown
Apparent Declination
Unknown
Sunlit
N/A
Visualization observer readout
Local Sidereal Time
15:19:52
Azimuth
Unknown
Elevation
Unknown
Doppler factor
Unknown
Orbital elements
Apogee altitude
1,299.764 km
Perigee altitude
1,255.24 km
Semi-major axis
7,655.639 km
Eccentricity
0.00291
Inclination
90.2404°
RAAN
3.6739°
Arg. of periapsis
187.3642°
True anomaly
172.74756°
Mean anomaly
172.7054°
Eccentric anomaly
172.72649°
Mean motion
3.24019 °/min
Orbital period
111.1 mins
BSTAR
0.000011944
Loading maneuver chart data...
Computing Atmospheric mass density...
Loading historical data...
Loading historical data...
Loading historical data...
Loading historical data...
Loading historical data...
Loading historical data...
Loading historical data...

Documentation

Showing up to 5 results
|